Location: Moscow
(55.7500°N, 37.5830°E)
Time: 04:09:33
(UTC+03:00)

FENGYUN 1C DEB - Pass Details

Date: 11 July 2022
Orbit: 583 x 834 km, 98.9° (Epoch: 14 August)

Event Time Altitude Azimuth Distance (km) Brightness Sun altitude
Exits shadow 22:31:31 - 193° (SSW) 3,100 ? -7.9°
Reaches altitude 10° 22:33:51 10° 203° (SSW) 2,248 ? -8.1°
Maximum altitude 22:38:09 30° 264° (W) 1,267 ? -8.3°
Drops below altitude 10° 22:42:15 10° 325° (NW) 2,121 ? -8.6°
Sets 22:44:39 0° 337° (NNW) 2,999 ? -8.8°
